Terminal Aerodrome Forecast
Issued by NWS

Home | Current Version | Previous Version | Text Only | Print | Product List | Glossary On
Versions: 1 2 3 4 5 6 7 8 9 10 11 12 13 14 15 16 17 18
059
FTUS42 KMHX 260520
TAFOAJ
TAF
KOAJ 260520Z 2606/2706 20003KT P6SM SCT080
     FM262000 18008KT P6SM SCT060
     FM270100 19003KT P6SM SKC
      AMD LTD TO CLD VIS AND WIND=

USA.gov is the U.S. government's official web portal to all federal, state and local government web resources and services.